Starlink 2433

operational
NORAD ID: 47841 Int'l Des: 2021-018 Owner: SPXS Country: US Constellation: starlink
LEOCIRCULARSTARLINK_TYPE

关于 Starlink 2433

正在加载描述...

实时位置

正在加载3D地球...

即将过境

高度历史

Altitude vs Time

uPlot chart will show altitude changes over time

两行轨道根数

1 47841U 21018BG 25260.44138592 -.00001740 00000-0 -97954-4 0 9999
2 47841 53.0528 289.3593 0001291 103.0412 257.0721 15.06393745250769
Epoch: Sep 17, 2025 • Age: 20 hours

当前状态

高度 555.2 km
速度 7.58 km/s
星下点 -26.17°S, 30.07°E
发射日期 Mar 11, 2021
运行时间 4.5 years
类型 internet

技术详情

分类 Payload
质量 260.00 kg
干质量 248.00 kg
总质量 260.00 kg
长度 0.20 m
直径 2.80 m
跨度 9.00 m
形状 Box + pan
制造商 SPXS
平台类型 Starlink
阶段状态 In Orbit
所有者/国家 SPXS/US

大型星座

Loading constellations...